World > North America > United States > Utah

Santaquin, Utah Regional Weather

Lat: 39.97N, Lon: 111.78W
Wx Zone: UTZ004Web Search

Ads allow us to feed your daily addiction for the world's greatest weather information. We're determined to offer quality sponsors, in the least annoying way possible.

Feedback


°F Click to change Santaquin hourly weather to Imperial units.Click to change Santaquin hourly weather to Metric units. °C
Santaquin Weather Map
UTC Time: 4/17/2021, 20:45
Your Time:

Santaquin, UT Regional Weather

Expires:202104172100;;706390
ASUS45 KSLC 172010
RWRUT 

UTAH REGIONAL WEATHER ROUNDUP
NATIONAL WEATHER SERVICE SALT LAKE CITY UT
200 PM MDT SAT APR 17 2021


UTZ001>011-023>025-172100-

NORTHERN UTAH
  
CITY           SKY/WX    TMP DP  RH WIND       PRES   REMARKS
BRIGHAM CITY     N/A     53  10  17 W8        30.24F                  
HILL AFB       NOT AVBL                                               
LOGAN            N/A     51  18  27 CALM      30.24F                  
OGDEN            N/A     56  15  20 NE16G23   30.21F                  
SALT LAKE CITY   N/A     55  18  23 N14G20    30.20F                  
TOOELE VALLEY    N/A     52  28  40 N17       30.22F                  
WENDOVER         N/A     53  16  23 N9G18     30.25F                  
HEBER CITY     MOCLDY    46  16  29 N6        30.18S                  
WEST JORDAN      N/A     51  27  39 N6G20     30.21F                  

$$


SKY/WX - Weather  TMP - Temperature  DP - Dew Point  RH - Relative Humidity
WIND - Wind Direction/Speed PRES - Barometric Pressure VSB - Visibility
WCI - Wind Chill Index E13G22 Wind - East Wind 13 mph/Gusts of 22 mph